When you browse on this site, cookies collect data to enhance your experience and personalize the content and advertising you see.
Visit our Privacy Policy to learn more. By continuing to use the site, you agree to this use of cookies and data.
  • In United Kingdom
  • List of Countries
  • For 7 days
  • Water Temperature
  • Satellite Maps
  • Weather Map
  • Weather Widgets
  • user-avatar
    Login

    Hourly Weather Bulawayo

    Today, 23 March, Saturday

    Time Temperature Precipitation Wind Pressure Humidity
    00:00 +17°C° 0 mm 5 mps 651 mmHg 85%
    01:00 +17°C° 0 mm 5 mps 651 mmHg 87%
    02:00 +16°C° 0 mm 5 mps 651 mmHg 90%
    03:00 +16°C° 0 mm 5 mps 650 mmHg 91%
    04:00 +16°C° 0 mm 5 mps 650 mmHg 92%
    05:00 +16°C° 0 mm 5 mps 650 mmHg 92%
    06:00 +17°C° 0 mm 5 mps 651 mmHg 87%
    07:00 +17°C° 0 mm 6 mps 651 mmHg 82%
    08:00 +19°C° 0 mm 6 mps 652 mmHg 77%
    09:00 +21°C° 0 mm 6 mps 652 mmHg 70%
    10:00 +22°C° 0 mm 6 mps 653 mmHg 64%
    11:00 +24°C° 0 mm 6 mps 653 mmHg 57%
    12:00 +26°C° 0 mm 6 mps 653 mmHg 53%
    13:00 +27°C° 0 mm 5 mps 652 mmHg 49%
    14:00 +28°C° 0 mm 5 mps 652 mmHg 45%
    15:00 +27°C° 0 mm 5 mps 651 mmHg 47%
    16:00 +27°C° 0 mm 5 mps 651 mmHg 49%
    17:00 +26°C° 0 mm 5 mps 650 mmHg 50%
    18:00 +25°C° 0 mm 4 mps 650 mmHg 58%
    19:00 +22°C° 0 mm 4 mps 650 mmHg 65%
    20:00 +20°C° 0 mm 4 mps 650 mmHg 72%
    21:00 +20°C° 0 mm 4 mps 650 mmHg 77%
    22:00 +19°C° 0 mm 5 mps 650 mmHg 81%
    23:00 +17°C° 0 mm 5 mps 651 mmHg 86%

    Tomorrow, 24 March, Sunday

    Time Temperature Precipitation Wind Pressure Humidity
    00:00 +17°C° 0 mm 5 mps 651 mmHg 87%
    01:00 +17°C° 0 mm 5 mps 650 mmHg 89%
    02:00 +17°C° 0 mm 4 mps 650 mmHg 90%
    03:00 +17°C° 0 mm 4 mps 650 mmHg 91%
    04:00 +17°C° 0 mm 4 mps 650 mmHg 92%
    05:00 +17°C° 0 mm 4 mps 650 mmHg 93%
    06:00 +17°C° 0 mm 5 mps 650 mmHg 88%
    07:00 +17°C° 0 mm 5 mps 651 mmHg 82%
    08:00 +19°C° 0 mm 5 mps 651 mmHg 77%
    09:00 +22°C° 0 mm 5 mps 652 mmHg 66%
    10:00 +25°C° 0 mm 5 mps 652 mmHg 56%
    11:00 +28°C° 0 mm 5 mps 653 mmHg 45%
    12:00 +29°C° 0 mm 4 mps 652 mmHg 41%
    13:00 +30°C° 0 mm 4 mps 652 mmHg 37%
    14:00 +32°C° 0 mm 4 mps 651 mmHg 33%
    15:00 +30°C° 0 mm 4 mps 650 mmHg 34%
    16:00 +30°C° 0 mm 4 mps 650 mmHg 36%
    17:00 +29°C° 0 mm 4 mps 649 mmHg 37%
    18:00 +27°C° 0 mm 4 mps 649 mmHg 44%
    19:00 +25°C° 0 mm 4 mps 649 mmHg 51%
    20:00 +22°C° 0 mm 4 mps 649 mmHg 59%
    21:00 +21°C° 0 mm 3 mps 649 mmHg 66%
    22:00 +20°C° 0 mm 3 mps 649 mmHg 74%
    23:00 +19°C° 0 mm 3 mps 649 mmHg 82%

    Day after tomorrow, 25 March, Monday

    Time Temperature Precipitation Wind Pressure Humidity
    00:00 +18°C° 0 mm 3 mps 649 mmHg 86%
    01:00 +17°C° 0 mm 2 mps 648 mmHg 90%
    02:00 +17°C° 0 mm 2 mps 648 mmHg 94%
    03:00 +16°C° 0 mm 2 mps 648 mmHg 94%
    04:00 +16°C° 0 mm 1 mps 648 mmHg 94%
    05:00 +16°C° 0 mm 1 mps 648 mmHg 94%
    06:00 +19°C° 0 mm 1 mps 649 mmHg 85%
    07:00 +21°C° 0 mm 1 mps 649 mmHg 76%
    08:00 +22°C° 0 mm 1 mps 650 mmHg 66%
    09:00 +25°C° 0 mm 1 mps 651 mmHg 53%
    10:00 +28°C° 0 mm 2 mps 651 mmHg 39%
    11:00 +32°C° 0 mm 2 mps 652 mmHg 25%
    12:00 +32°C° 0 mm 2 mps 651 mmHg 23%
    13:00 +34°C° 0 mm 3 mps 650 mmHg 21%
    14:00 +35°C° 0 mm 3 mps 650 mmHg 19%
    15:00 +35°C° 0 mm 3 mps 649 mmHg 20%
    16:00 +34°C° 0 mm 3 mps 649 mmHg 21%
    17:00 +34°C° 0 mm 3 mps 648 mmHg 22%
    18:00 +30°C° 0 mm 3 mps 648 mmHg 28%
    19:00 +27°C° 0 mm 3 mps 648 mmHg 33%
    20:00 +25°C° 0 mm 2 mps 647 mmHg 38%
    21:00 +24°C° 0 mm 2 mps 648 mmHg 41%
    22:00 +23°C° 0 mm 2 mps 648 mmHg 44%
    23:00 +21°C° 0 mm 2 mps 648 mmHg 48%

    26 March, Tuesday

    Time Temperature Precipitation Wind Pressure Humidity
    00:00 +21°C° 0 mm 2 mps 648 mmHg 48%
    01:00 +21°C° 0 mm 2 mps 647 mmHg 49%
    02:00 +21°C° 0 mm 1 mps 647 mmHg 50%
    03:00 +21°C° 0 mm 1 mps 647 mmHg 51%
    04:00 +21°C° 0 mm 1 mps 647 mmHg 52%
    05:00 +20°C° 0 mm 1 mps 647 mmHg 53%
    06:00 +22°C° 0 mm 1 mps 648 mmHg 49%
    07:00 +23°C° 0 mm 1 mps 649 mmHg 46%
    08:00 +25°C° 0 mm 2 mps 650 mmHg 42%
    09:00 +28°C° 0 mm 2 mps 651 mmHg 37%
    10:00 +30°C° 0 mm 3 mps 651 mmHg 32%
    11:00 +34°C° 0 mm 3 mps 652 mmHg 27%
    12:00 +35°C° 0 mm 3 mps 651 mmHg 25%
    13:00 +36°C° 0 mm 3 mps 651 mmHg 22%
    14:00 +37°C° 0 mm 3 mps 650 mmHg 20%
    15:00 +35°C° 0 mm 3 mps 650 mmHg 23%
    16:00 +33°C° 0 mm 3 mps 649 mmHg 27%
    17:00 +30°C° 0 mm 2 mps 649 mmHg 30%
    18:00 +29°C° 0.5 mm 3 mps 649 mmHg 39%
    19:00 +27°C° 0.5 mm 3 mps 649 mmHg 49%
    20:00 +25°C° 0.5 mm 3 mps 649 mmHg 58%
    21:00 +24°C° 0.3 mm 3 mps 650 mmHg 63%
    22:00 +24°C° 0.3 mm 3 mps 650 mmHg 67%
    23:00 +22°C° 0.3 mm 3 mps 651 mmHg 72%

    27 March, Wednesday

    Time Temperature Precipitation Wind Pressure Humidity
    00:00 +21°C° 0.2 mm 3 mps 651 mmHg 77%
    01:00 +21°C° 0.2 mm 4 mps 650 mmHg 82%
    02:00 +20°C° 0.2 mm 4 mps 650 mmHg 88%
    03:00 +20°C° 0.2 mm 4 mps 650 mmHg 88%
    04:00 +20°C° 0.2 mm 4 mps 650 mmHg 88%
    05:00 +20°C° 0.2 mm 5 mps 650 mmHg 88%
    06:00 +20°C° 0 mm 5 mps 651 mmHg 84%
    07:00 +21°C° 0 mm 5 mps 652 mmHg 80%
    08:00 +22°C° 0 mm 6 mps 653 mmHg 76%
    09:00 +25°C° 0 mm 5 mps 653 mmHg 66%
    10:00 +27°C° 0 mm 5 mps 653 mmHg 56%
    11:00 +29°C° 0 mm 4 mps 654 mmHg 46%
    12:00 +32°C° 0 mm 4 mps 653 mmHg 41%
    13:00 +33°C° 0 mm 3 mps 653 mmHg 36%
    14:00 +34°C° 0 mm 3 mps 653 mmHg 31%
    15:00 +33°C° 0 mm 3 mps 652 mmHg 34%
    16:00 +33°C° 0 mm 4 mps 652 mmHg 37%
    17:00 +32°C° 0 mm 4 mps 652 mmHg 40%
    18:00 +28°C° 0.1 mm 5 mps 652 mmHg 53%
    19:00 +26°C° 0.1 mm 5 mps 652 mmHg 65%
    20:00 +22°C° 0.1 mm 5 mps 652 mmHg 77%
    21:00 +21°C° 0 mm 5 mps 652 mmHg 82%
    22:00 +20°C° 0 mm 5 mps 652 mmHg 86%
    23:00 +19°C° 0 mm 4 mps 652 mmHg 91%

    28 March, Thursday

    Time Temperature Precipitation Wind Pressure Humidity
    00:00 +19°C° 0 mm 4 mps 652 mmHg 90%
    01:00 +19°C° 0 mm 4 mps 652 mmHg 89%
    02:00 +19°C° 0 mm 3 mps 651 mmHg 88%
    03:00 +18°C° 0 mm 3 mps 651 mmHg 90%
    04:00 +18°C° 0 mm 2 mps 651 mmHg 92%
    05:00 +17°C° 0 mm 2 mps 651 mmHg 94%
    06:00 +19°C° 0 mm 2 mps 651 mmHg 86%
    07:00 +20°C° 0 mm 2 mps 652 mmHg 79%
    08:00 +23°C° 0 mm 2 mps 653 mmHg 72%
    09:00 +26°C° 0 mm 1 mps 653 mmHg 59%
    10:00 +30°C° 0 mm 1 mps 654 mmHg 47%
    11:00 +32°C° 0 mm 0 mps 655 mmHg 34%
    12:00 +35°C° 0 mm 2 mps 654 mmHg 30%
    13:00 +35°C° 0 mm 3 mps 653 mmHg 26%
    14:00 +36°C° 0 mm 4 mps 652 mmHg 22%
    15:00 +35°C° 0 mm 4 mps 652 mmHg 23%
    16:00 +34°C° 0 mm 4 mps 652 mmHg 24%
    17:00 +33°C° 0 mm 5 mps 651 mmHg 25%
    18:00 +30°C° 0 mm 4 mps 651 mmHg 30%
    19:00 +28°C° 0 mm 4 mps 651 mmHg 36%
    20:00 +26°C° 0 mm 3 mps 651 mmHg 42%
    21:00 +25°C° 0 mm 3 mps 650 mmHg 48%
    22:00 +24°C° 0 mm 3 mps 650 mmHg 54%
    23:00 +22°C° 0 mm 3 mps 650 mmHg 60%
    Show more